Location: Hancock Field Station
(44.9202°N, 120.4259°W)
Time: 00:25:48
(UTC-07:00)

Nadezhda 4 Rocket - Visible Passes

Search period start: 25 May 2015 00:00
Search period end: 04 June 2015 00:00
Orbit: 950 x 992 km, 82.9° (Epoch: 24 May)

Date Brightness Start Highest point End Pass type
(mag) Time Alt. Az. Time Alt. Az. Time Alt. Az.
25 May 6.2 03:50:32 10° NNE 03:55:33 26° ENE 04:00:39 10° SE visible
26 May 5.2 04:14:11 10° N 04:20:03 43° ENE 04:25:52 10° SSE visible
27 May 6.8 02:55:24 10° NE 02:57:41 12° ENE 03:00:20 10° E visible
27 May 4.3 04:38:09 10° N 04:44:20 75° E 04:50:27 10° SSE visible
28 May 6.4 03:17:59 10° NNE 03:22:29 21° ENE 03:27:08 10° ESE visible
29 May 5.6 03:41:29 10° N 03:47:03 35° ENE 03:52:38 10° SE visible
30 May 4.6 04:05:20 10° N 04:11:25 60° ENE 04:17:27 10° SSE visible
31 May 6.5 02:45:34 10° NNE 02:49:23 17° ENE 02:53:25 10° ESE visible
31 May 4.0 04:29:25 10° N 04:35:36 81° W 04:41:42 10° S visible
01 Jun 5.8 03:08:49 10° N 03:14:02 29° ENE 03:19:18 10° SE visible
02 Jun 4.9 03:32:32 10° N 03:38:28 49° ENE 03:44:23 10° SSE visible
03 Jun 6.5 02:13:19 10° NNE 02:16:14 14° ENE 02:19:28 10° E visible
03 Jun 4.1 03:56:32 10° N 04:02:43 83° E 04:08:50 10° S visible
